Latest Weather Observations for Canberra

IDN60801

Issued at 9:02 am EST Monday 6 July 2015 (issued every 30 minutes, with the page automatically refreshed every 10 minutes)

About weather observations | Map of weather stations | Latest weather observations for NSW | Other Formats
Station Details ID: 070351 Name: CANBERRA AIRPORT Lat: -35.31 Lon: 149.20 Height: 577.05 m
Data from the previous 72 hours. | See also: Recent months at Canberra
Date/Time
EST
Temp
°C
App
Temp
°C
Dew
Point
Rel
Hum
%
Delta-T
°C
Wind Press
QNH
hPa
Press
MSL
hPa
Rain
since 9 am
mm
Dir
 
Spd
km/h
Gust
km/h
Spd
kts
Gust
kts
06/08:52am 1.7 -2.5 1.6 99 0.0 SW 13 17 7 9 1017.2 - 0.2
06/08:30am 1.7 -2.1 1.6 99 0.0 WSW 11 13 6 7 1017.0 - 0.2
06/08:00am 2.2 -0.8 2.1 99 0.0 W 7 9 4 5 1017.0 - 0.2
06/07:30am 2.1 -0.9 2.0 99 0.0 W 7 9 4 5 1016.9 - 0.2
06/07:15am 2.1 -0.9 2.0 99 0.0 W 7 11 4 6 1016.9 - 0.2
06/07:00am 2.2 -0.8 2.1 99 0.0 W 7 9 4 5 1016.7 - 0.2
06/06:55am 2.2 -0.8 2.1 99 0.0 W 7 11 4 6 1016.7 - 0.2
06/06:43am 2.2 -1.2 2.1 99 0.0 W 9 11 5 6 1016.7 - 0.2
06/06:30am 2.3 -0.7 2.2 99 0.0 WSW 7 9 4 5 1016.7 - 0.0
06/05:44am 2.5 -0.8 2.4 99 0.0 W 9 11 5 6 1016.5 - 0.0
06/05:30am 2.7 -0.6 2.6 99 0.0 WSW 9 11 5 6 1016.6 - 0.0
06/05:00am 2.9 -0.3 2.8 99 0.0 WSW 9 11 5 6 1016.7 - 0.0
06/04:30am 2.7 0.0 2.6 99 0.0 SSW 6 7 3 4 1016.7 - 0.0
06/04:00am 2.8 1.2 2.7 99 0.0 CALM 0 0 0 0 1016.9 - 0.0
06/03:30am 2.7 1.1 2.6 99 0.0 CALM 0 0 0 0 1017.1 - 0.0
06/03:00am 2.8 1.2 2.7 99 0.0 CALM 0 2 0 1 1017.5 1018.8 0.0
06/02:31am 2.7 0.0 2.6 99 0.0 W 6 9 3 5 1017.9 - 0.0
06/02:30am 2.7 0.0 2.6 99 0.0 W 6 9 3 5 1017.9 - 0.0
06/02:00am 2.7 -1.0 2.6 99 0.0 NNW 11 13 6 7 1018.1 - 0.0
06/01:31am 2.7 -1.0 2.6 99 0.0 N 11 13 6 7 1018.2 - 0.0
06/01:30am 2.7 -1.0 2.6 99 0.0 N 11 13 6 7 1018.2 - 0.0
06/01:28am 2.7 -1.0 2.6 99 0.0 N 11 13 6 7 1018.2 - 0.0
06/01:00am 2.8 -0.8 2.7 99 0.0 N 11 13 6 7 1018.4 - 0.0
06/12:38am 2.7 -0.2 2.6 99 0.0 N 7 7 4 4 1018.6 - 0.0
06/12:30am 2.5 -0.2 2.4 99 0.0 N 6 7 3 4 1018.7 - 0.0
06/12:26am 2.4 0.4 2.3 99 0.0 E 2 7 1 4 1018.7 - 0.0
06/12:08am 2.1 0.4 2.0 99 0.0 CALM 0 0 0 0 1018.9 - 0.0
06/12:00am 2.3 0.7 2.2 99 0.0 CALM 0 0 0 0 1019.0 1020.4 0.0
 
Date/Time
EST
Temp
°C
App
Temp
°C
Dew
Point
Rel
Hum
%
Delta-T
°C
Wind Press
QNH
hPa
Press
MSL
hPa
Rain
since 9 am
mm
Dir
 
Spd
km/h
Gust
km/h
Spd
kts
Gust
kts
05/11:44pm 2.1 0.4 2.0 99 0.0 CALM 0 0 0 0 1019.0 - 0.0
05/11:30pm 1.8 0.1 1.7 99 0.0 CALM 0 0 0 0 1019.0 - 0.0
05/11:00pm 1.4 -0.4 1.3 99 0.0 CALM 0 0 0 0 1019.1 - 0.0
05/10:30pm 0.9 -1.0 0.8 99 0.0 CALM 0 0 0 0 1019.1 - 0.0
05/10:00pm 0.5 -1.4 0.4 99 0.0 CALM 0 0 0 0 1019.1 - 0.0
05/09:30pm 0.0 -2.0 -0.1 99 0.0 CALM 0 0 0 0 1019.3 - 0.0
05/09:01pm -0.7 -2.8 -0.8 99 0.0 CALM 0 0 0 0 1019.1 - 0.0
05/09:00pm -0.7 -2.8 -0.8 99 0.0 CALM 0 0 0 0 1019.1 1020.5 0.0
05/08:40pm -1.1 -3.3 -1.2 99 0.0 CALM 0 0 0 0 1019.3 - 0.0
05/08:30pm -1.4 -3.6 -1.8 97 0.1 CALM 0 0 0 0 1019.3 - 0.0
05/08:23pm -1.9 -4.2 -2.7 94 0.2 CALM 0 0 0 0 1019.3 - 0.0
05/08:18pm -1.8 -4.1 -2.6 94 0.2 CALM 0 0 0 0 1019.3 - 0.0
05/08:08pm -0.8 -3.0 -1.4 96 0.2 CALM 0 0 0 0 1019.1 - 0.0
05/08:00pm -0.3 -2.4 -0.7 97 0.1 CALM 0 0 0 0 1019.3 - 0.0
05/07:43pm 0.1 -1.9 -0.2 98 0.1 CALM 0 0 0 0 1019.3 - 0.0
05/07:30pm 0.2 -1.8 -0.4 96 0.2 CALM 0 0 0 0 1019.3 - 0.0
05/07:00pm 0.4 -2.3 0.1 98 0.1 S 4 6 2 3 1019.1 - 0.0
05/06:30pm -0.3 -3.6 -1.0 95 0.2 ESE 6 7 3 4 1018.9 - 0.0
05/05:30pm 1.8 -1.3 0.2 89 0.6 ESE 6 7 3 4 1018.6 - 0.0
05/05:00pm 4.7 1.6 1.6 80 1.3 S 7 9 4 5 1018.5 - 0.0
05/04:30pm 5.8 2.8 2.3 78 1.5 WSW 7 9 4 5 1018.4 - 0.0
05/04:00pm 6.3 3.0 2.6 77 1.6 WSW 9 9 5 5 1018.5 - 0.0
05/03:30pm 6.5 3.2 2.4 75 1.7 WSW 9 11 5 6 1018.5 - 0.0
05/03:00pm 6.0 2.7 2.5 78 1.5 SSW 9 11 5 6 1018.5 1019.8 0.0
05/02:30pm 5.8 2.8 2.1 77 1.6 WSW 7 9 4 5 1018.9 - 0.0
05/02:00pm 5.7 2.0 2.4 79 1.4 NW 11 15 6 8 1019.1 - 0.0
05/01:47pm 5.9 2.3 2.7 80 1.4 NW 11 15 6 8 1019.3 - 0.0
05/01:30pm 4.7 1.4 2.7 87 0.8 WNW 9 13 5 7 1019.4 - 0.0
05/01:00pm 2.9 -0.1 1.7 92 0.5 SW 7 11 4 6 1020.0 - 0.0
05/12:30pm 2.4 -1.0 1.8 96 0.2 W 9 13 5 7 1020.3 - 0.0
05/12:10pm 1.9 -1.9 1.8 99 0.0 W 11 13 6 7 1020.6 - 0.0
05/12:00pm 2.0 -1.4 1.9 99 0.0 W 9 13 5 7 1020.8 1022.2 0.0
05/11:30am 1.5 -1.4 1.4 99 0.0 NNW 6 9 3 5 1021.4 - 0.0
05/11:00am 1.3 -1.6 1.2 99 0.0 WNW 6 9 3 5 1021.9 - 0.0
05/10:30am 0.8 -2.2 0.7 99 0.0 NNW 6 7 3 4 1022.4 - 0.0
05/10:00am 0.6 -1.7 0.5 99 0.0 NE 2 6 1 3 1022.7 - 0.0
05/09:30am 0.2 -2.1 0.1 99 0.0 WSW 2 7 1 4 1022.6 - 0.0
05/09:00am -0.3 -3.7 -0.4 99 0.0 SSW 7 9 4 5 1022.6 1024.0 0.0
05/08:30am -0.9 -4.2 -1.0 99 0.0 SSE 6 7 3 4 1022.5 - 0.0
05/08:00am -1.6 -5.1 -1.7 99 0.0 S 7 9 4 5 1022.6 - 0.0
05/07:30am -2.0 -4.3 -2.1 99 -0.1 CALM 0 0 0 0 1022.5 - 0.0
05/07:00am -2.3 -4.6 -2.4 99 -0.1 CALM 0 0 0 0 1022.3 - 0.0
05/06:30am -2.5 -4.8 -2.6 99 -0.1 CALM 0 0 0 0 1022.0 - 0.0
05/06:15am -2.6 -4.9 -2.7 99 -0.1 CALM 0 0 0 0 1021.9 - 0.0
05/06:00am -2.6 -4.9 -2.7 99 -0.1 CALM 0 0 0 0 1021.7 1023.0 0.0
05/05:44am -3.0 -5.8 -3.1 99 -0.1 NNE 2 7 1 4 1021.6 - 0.0
05/05:30am -3.1 -6.8 -3.2 99 -0.1 NNE 7 7 4 4 1021.6 - 0.0
05/05:00am -4.0 -6.5 -4.3 98 -0.1 CALM 0 0 0 0 1021.4 - 0.0
05/04:56am -4.2 -6.8 -4.5 98 -0.1 CALM 0 2 0 1 1021.4 - 0.0
05/04:30am -3.6 -7.4 -3.9 98 -0.1 NE 7 7 4 4 1021.4 - 0.0
05/04:25am -3.6 -7.4 -3.9 98 -0.1 NE 7 9 4 5 1021.4 - 0.0
05/04:18am -4.0 -7.9 -4.4 97 0.0 NNE 7 9 4 5 1021.5 - 0.0
05/04:07am -4.0 -8.3 -4.4 97 0.0 N 9 9 5 5 1021.6 - 0.0
05/04:00am -4.1 -7.8 -4.6 96 0.0 N 6 9 3 5 1021.7 - 0.0
05/03:45am -3.5 -6.0 -3.8 98 -0.1 CALM 0 0 0 0 1021.5 - 0.0
05/03:30am -3.7 -7.3 -4.0 98 -0.1 SSE 6 7 3 4 1021.6 - 0.0
05/03:20am -2.8 -5.6 -2.9 99 -0.1 SSE 2 7 1 4 1021.7 - 0.0
05/03:00am -2.9 -5.3 -3.2 98 0.0 CALM 0 0 0 0 1022.0 1023.4 0.0
05/02:59am -2.6 -5.0 -2.9 98 0.0 CALM 0 0 0 0 1022.0 - 0.0
05/02:56am -3.0 -5.4 -3.4 97 0.0 CALM 0 0 0 0 1022.1 - 0.0
05/02:34am -1.8 -4.0 -1.9 99 0.0 CALM 0 0 0 0 1022.1 - 0.0
05/02:30am -1.8 -4.0 -1.9 99 0.0 CALM 0 0 0 0 1022.1 - 0.0
05/02:14am -2.3 -5.8 -2.6 98 0.0 S 6 7 3 4 1022.2 - 0.0
05/02:00am -1.7 -4.0 -2.1 97 0.1 CALM 0 7 0 4 1022.3 - 0.0
05/01:30am -1.0 -3.2 -1.3 98 0.1 CALM 0 0 0 0 1022.2 - 0.0
05/01:00am -0.7 -4.5 -0.8 99 0.0 N 9 11 5 6 1022.0 - 0.0
05/12:30am -1.3 -4.3 -1.6 98 0.0 NNW 4 7 2 4 1022.0 - 0.0
05/12:00am -1.8 -4.8 -2.2 97 0.1 N 4 7 2 4 1022.2 1023.6 0.0
 
Date/Time
EST
Temp
°C
App
Temp
°C
Dew
Point
Rel
Hum
%
Delta-T
°C
Wind Press
QNH
hPa
Press
MSL
hPa
Rain
since 9 am
mm
Dir
 
Spd
km/h
Gust
km/h
Spd
kts
Gust
kts
04/11:30pm -2.3 -5.4 -2.8 96 0.1 ENE 4 7 2 4 1022.5 - 0.0
04/11:00pm -2.3 -5.8 -2.8 96 0.1 SE 6 7 3 4 1022.6 - 0.0
04/10:30pm -1.1 -3.3 -1.7 96 0.2 CALM 0 0 0 0 1022.7 - 0.0
04/10:00pm -1.4 -5.0 -2.1 95 0.2 SSE 7 9 4 5 1022.5 - 0.0
04/09:30pm -1.4 -3.7 -2.7 91 0.4 CALM 0 0 0 0 1022.4 - 0.0
04/09:00pm 1.7 -1.6 0.4 91 0.5 NE 7 11 4 6 1022.4 1023.8 0.0
04/08:30pm 0.8 -3.0 -0.8 89 0.6 ENE 9 11 5 6 1022.4 - 0.0
04/08:00pm 2.1 -1.0 0.2 87 0.7 NNE 6 7 3 4 1022.4 - 0.0
04/07:30pm 2.8 -1.5 0.9 87 0.8 N 13 15 7 8 1022.1 - 0.0
04/07:00pm 3.1 -0.9 0.5 83 1.0 NNE 11 13 6 7 1022.1 - 0.0
04/06:30pm 3.9 0.0 0.9 81 1.2 NNE 11 11 6 6 1022.0 - 0.0
04/06:00pm 4.5 0.6 1.0 78 1.4 N 11 15 6 8 1021.8 1023.2 0.0
04/05:30pm 4.5 0.1 0.1 73 1.7 NNW 13 17 7 9 1021.6 - 0.0
04/05:00pm 5.5 1.1 0.1 68 2.2 NNW 13 15 7 8 1021.2 - 0.0
04/04:30pm 7.9 4.7 0.6 60 3.0 NNW 7 9 4 5 1020.8 - 0.0
04/04:00pm 9.0 5.8 0.7 56 3.5 WNW 7 9 4 5 1020.8 - 0.0
04/03:30pm 8.4 4.8 0.6 58 3.2 W 9 13 5 7 1020.9 - 0.0
04/03:00pm 8.7 6.0 0.4 56 3.4 WSW 4 9 2 5 1020.9 1022.3 0.0
04/02:30pm 8.8 5.6 1.0 58 3.3 SW 7 11 4 6 1021.1 - 0.0
04/02:00pm 8.0 5.0 0.5 59 3.1 SW 6 9 3 5 1020.9 - 0.0
04/01:30pm 7.4 5.2 0.8 63 2.7 ESE 2 7 1 4 1021.1 - 0.0
04/01:00pm 6.7 3.5 0.8 66 2.4 SSW 7 11 4 6 1021.4 - 0.0
04/12:30pm 6.0 2.4 0.6 68 2.2 W 9 11 5 6 1021.8 - 0.0
04/12:00pm 5.3 2.3 1.1 74 1.7 W 6 9 3 5 1022.2 1023.6 0.0
04/11:30am 3.6 -0.1 0.1 78 1.4 WSW 9 11 5 6 1022.5 - 0.0
04/11:00am 3.1 -0.1 -0.4 78 1.3 W 6 11 3 6 1022.7 - 0.0
04/10:30am 3.3 0.0 0.0 79 1.3 WSW 7 9 4 5 1022.8 - 0.0
04/10:00am 3.3 0.6 0.4 81 1.1 ESE 4 9 2 5 1022.7 - 0.0
04/09:30am 1.3 -1.5 -0.3 89 0.6 SSE 4 9 2 5 1022.7 - 0.0
04/09:00am -0.6 -3.2 -1.4 94 0.3 W 2 6 1 3 1022.6 1024.0 0.2
04/08:30am -1.7 -5.1 -2.3 96 0.1 N 6 7 3 4 1022.5 - 0.2
04/08:00am -2.6 -6.1 -3.0 97 0.0 N 6 7 3 4 1022.4 - 0.2
04/07:30am -3.3 -7.1 -3.7 97 0.0 SE 7 9 4 5 1022.2 - 0.2
04/07:00am -4.3 -8.0 -4.8 96 0.0 SE 6 7 3 4 1022.3 - 0.2
04/06:30am -5.4 -8.2 -6.5 92 0.1 CALM 0 4 0 2 1022.1 - 0.2
04/06:00am -3.9 -6.8 -4.3 97 0.0 N 2 7 1 4 1022.0 1023.4 0.2
04/05:30am -4.8 -9.2 -5.6 94 0.1 NNW 9 13 5 7 1021.7 - 0.2
04/05:00am -3.1 -7.3 -3.5 97 0.0 ESE 9 13 5 7 1021.8 - 0.2
04/04:30am -4.2 -7.2 -4.7 96 0.0 SE 2 7 1 4 1022.0 - 0.2
04/04:00am -4.2 -6.8 -4.7 96 0.0 CALM 0 0 0 0 1022.0 - 0.2
04/03:30am -4.6 -7.2 -5.3 95 0.0 CALM 0 0 0 0 1022.3 - 0.2
04/03:00am -4.5 -7.5 -5.2 95 0.0 SSE 2 7 1 4 1022.5 1023.9 0.2
04/02:30am -4.1 -8.0 -4.6 96 0.0 SSW 7 7 4 4 1022.7 - 0.2
04/02:00am -4.1 -6.7 -4.9 94 0.1 CALM 0 0 0 0 1023.1 - 0.2
04/01:30am -3.4 -5.9 -4.2 94 0.1 CALM 0 0 0 0 1023.4 - 0.2
04/01:00am -3.0 -6.8 -3.8 94 0.1 E 7 9 4 5 1023.6 - 0.2
04/12:30am -3.3 -7.9 -4.4 92 0.2 ESE 11 11 6 6 1023.5 - 0.2
04/12:00am -3.0 -5.5 -4.3 91 0.3 CALM 0 0 0 0 1023.9 1025.3 0.2
 
Date/Time
EST
Temp
°C
App
Temp
°C
Dew
Point
Rel
Hum
%
Delta-T
°C
Wind Press
QNH
hPa
Press
MSL
hPa
Rain
since 9 am
mm
Dir
 
Spd
km/h
Gust
km/h
Spd
kts
Gust
kts
03/11:30pm -2.9 -6.2 -4.0 92 0.2 S 4 6 2 3 1024.1 - 0.2
03/11:00pm -2.5 -7.0 -3.6 92 0.3 SE 11 11 6 6 1024.0 - 0.2
03/10:30pm -1.8 -5.5 -4.1 84 0.7 E 6 9 3 5 1024.2 - 0.2
03/10:00pm 1.2 -1.5 -2.2 78 1.3 N 2 7 1 4 1024.4 - 0.2
03/09:30pm 1.6 -2.4 -2.0 77 1.3 N 9 11 5 6 1024.5 - 0.2
03/09:00pm 2.1 -3.0 -1.9 75 1.4 N 15 19 8 10 1024.5 1025.9 0.2
03/08:30pm 3.0 -2.4 -1.2 74 1.6 N 17 20 9 11 1024.6 - 0.2
03/08:00pm 3.0 -2.4 -1.0 75 1.5 NNW 17 22 9 12 1024.8 - 0.2
03/07:30pm 2.3 -2.8 -1.8 74 1.5 NW 15 19 8 10 1024.8 - 0.2
03/07:00pm 3.4 -2.6 -1.9 68 2.0 NW 20 26 11 14 1024.9 - 0.2
03/06:30pm 5.0 -1.0 -1.2 64 2.4 NW 20 28 11 15 1024.8 - 0.2
03/06:00pm 3.9 -1.2 -2.3 64 2.3 NNW 15 20 8 11 1024.6 1026.0 0.2
03/05:30pm 4.7 -1.2 -2.6 59 2.7 NNW 19 26 10 14 1024.4 - 0.2
03/05:00pm 5.5 -0.7 -3.1 54 3.2 NNW 20 26 11 14 1024.2 - 0.2
03/04:30pm 7.2 1.1 -3.6 46 4.0 NNW 19 26 10 14 1024.1 - 0.2
03/04:00pm 8.3 2.0 -3.8 42 4.5 NNW 20 26 11 14 1024.2 - 0.2
03/03:30pm 9.1 3.0 -4.1 39 4.9 NNW 19 26 10 14 1024.2 - 0.2
03/03:00pm 9.6 3.8 -4.4 37 5.2 NNW 17 22 9 12 1024.1 1025.5 0.2
03/02:30pm 10.2 4.5 -3.8 37 5.3 NW 17 20 9 11 1024.1 - 0.0
03/02:00pm 10.2 5.2 -4.6 35 5.5 NW 13 19 7 10 1024.2 - 0.0
03/01:30pm 9.5 5.8 -4.8 36 5.3 NNW 6 13 3 7 1024.5 - 0.0
03/01:00pm 9.6 5.9 -3.3 40 5.0 W 7 11 4 6 1025.2 - 0.0
03/12:30pm 8.7 5.1 -3.8 41 4.7 WNW 6 11 3 6 1025.7 - 0.0
03/12:00pm 8.8 5.5 -1.0 50 3.9 WSW 6 9 3 5 1026.1 1027.6 0.0
03/11:30am 7.3 3.4 -1.4 54 3.4 SW 9 11 5 6 1026.5 - 0.0
03/11:00am 6.2 2.7 -1.4 58 2.9 S 7 11 4 6 1026.9 - 0.0
03/10:30am 5.6 2.3 -1.1 62 2.6 N 6 7 3 4 1027.2 - 0.0
03/10:00am 4.1 0.6 -1.3 68 2.0 ENE 7 9 4 5 1027.4 - 0.0
03/09:30am 1.7 -1.7 -1.7 78 1.2 N 6 7 3 4 1027.5 - 0.0

Other Formats:

Comma delimited format used in spreadsheet applications
http://www.bom.gov.au/fwo/IDN60801/IDN60801.94926.axf

JavaScript Object Notation format (JSON) in row-major order
http://www.bom.gov.au/fwo/IDN60801/IDN60801.94926.json